Weather History for Chehalis, WA

Change the Weather History Date:

Monday, January 7, 2013

  Actual Average (KOLM) Record (KOLM)
Temperature  
Mean Temperature 46 °F 39 °F  
Max Temperature 50 °F 45 °F 57 °F (2002)
Min Temperature 41 °F 34 °F 6 °F (1979)
Degree Days  
Heating Degree Days 20 26  
Month to date heating degree days 182  
Since 1 July heating degree days 2452  
Cooling Degree Days 0 0  
Month to date cooling degree days 0  
Year to date cooling degree days 0  
Moisture  
Dew Point 44 °F    
Average Humidity 93    
Maximum Humidity 100    
Minimum Humidity 87    
Precipitation  
Precipitation 0.25 in 0.25 in 4.82 in (2009)
Month to date precipitation 1.78  
Year to date precipitation 1.78  
Sea Level Pressure  
Sea Level Pressure 30.06 in    
Wind  
Wind Speed 10 mph (SSW)    
Max Wind Speed 16 mph    
Max Gust Speed 25 mph    
Visibility 6 miles    
Events Rain    
T = Trace of Precipitation, MM = Missing Value Source: NWS Daily Summary

Daily Weather History Graph

Daily Weather History Graph

Search for Another Location

Airport:

Trip Planner

Search our weather history database for the weather conditions in past years. The results will help you decide how hot, cold, wet, or windy it might be!

Date:

Astronomy

Jan. 07, 2013 Rise Set
Actual Time 7:55 AM PST 4:41 PM PST
Civil Twilight 7:21 AM PST 5:16 PM PST
Nautical Twilight 6:42 AM PST 5:54 PM PST
Astronomical Twilight 6:06 AM PST 6:30 PM PST
Moon 3:21 AM PST (1/7) 12:59 PM PST (1/7)
Length of Visible Light 9h 55m
Length of Day
8h 45m
Waning Crescent, 21% of the Moon is Illuminated
Jan 7
Waning Crescent
Jan 11
New
Jan 18
First Quarter
Jan 26
Full
Feb 3
Last Quarter

Hourly Weather History & Observations

Time (PST) Temp. Windchill Dew Point Humidity Pressure Visibility Wind Dir Wind Speed Gust Speed Precip Events Conditions
12:15 AM 41.0 °F 35.2 °F 39.2 °F 93% 30.01 in 4.0 mi South 9.2 mph - 0.01 in Rain Light Rain
12:35 AM 41.0 °F 34.7 °F 39.2 °F 93% 30.00 in 5.0 mi South 10.4 mph 16.1 mph 0.02 in Rain Light Rain
12:55 AM 41.0 °F 34.7 °F 41.0 °F 100% 29.99 in 7.0 mi South 10.4 mph - 0.03 in   Overcast
1:15 AM 41.0 °F 34.7 °F 41.0 °F 100% 29.98 in 5.0 mi South 10.4 mph 17.3 mph 0.01 in   Overcast
1:35 AM 41.0 °F 34.7 °F 41.0 °F 100% 30.00 in 5.0 mi South 10.4 mph - 0.01 in   Overcast
1:55 AM 42.8 °F 36.2 °F 41.0 °F 93% 29.97 in 6.0 mi South 12.7 mph 17.3 mph 0.01 in Rain Light Rain
2:15 AM 42.8 °F 36.6 °F 41.0 °F 93% 29.96 in 10.0 mi SSE 11.5 mph 18.4 mph N/A   Overcast
2:55 AM 44.6 °F 37.4 °F 41.0 °F 87% 29.95 in 8.0 mi South 16.1 mph 23.0 mph N/A   Overcast
3:15 AM 44.6 °F 37.8 °F 42.8 °F 93% 29.95 in 4.0 mi South 15.0 mph 23.0 mph N/A   Overcast
3:35 AM 44.6 °F 38.8 °F 42.8 °F 93% 29.95 in 5.0 mi South 11.5 mph 20.7 mph 0.01 in Rain Light Rain
3:55 AM 44.6 °F 37.4 °F 42.8 °F 93% 29.96 in 5.0 mi South 16.1 mph 25.3 mph 0.02 in   Overcast
4:15 AM 44.6 °F 38.1 °F 42.8 °F 93% 29.96 in 5.0 mi South 13.8 mph 18.4 mph 0.02 in   Overcast
4:35 AM 44.6 °F 37.8 °F 42.8 °F 93% 29.95 in 7.0 mi South 15.0 mph 19.6 mph 0.05 in   Overcast
4:55 AM 44.6 °F 38.1 °F 42.8 °F 93% 29.93 in 8.0 mi South 13.8 mph 20.7 mph 0.06 in Rain Light Rain
5:15 AM 44.6 °F 37.8 °F 42.8 °F 93% 29.92 in 8.0 mi South 15.0 mph 21.9 mph 0.01 in Rain Light Rain
5:35 AM 44.6 °F 38.4 °F 42.8 °F 93% 29.92 in 5.0 mi SSW 12.7 mph 20.7 mph 0.03 in   Overcast
5:55 AM 44.6 °F 39.2 °F 42.8 °F 93% 29.92 in 8.0 mi South 10.4 mph 17.3 mph 0.03 in Rain Light Rain
6:15 AM 44.6 °F 39.2 °F 42.8 °F 93% 29.92 in 7.0 mi South 10.4 mph 16.1 mph 0.01 in Rain Light Rain
6:35 AM 44.6 °F 39.2 °F 42.8 °F 93% 29.93 in 7.0 mi SSW 10.4 mph 16.1 mph 0.01 in Rain Light Rain
6:55 AM 44.6 °F 40.2 °F 42.8 °F 93% 29.93 in 5.0 mi SSW 8.1 mph - 0.03 in Rain Light Rain
7:15 AM 44.6 °F 39.2 °F 42.8 °F 93% 29.93 in 5.0 mi South 10.4 mph - 0.02 in Rain Light Rain
7:35 AM 44.6 °F 39.7 °F 44.6 °F 100% 29.92 in 5.0 mi SSW 9.2 mph - 0.04 in Rain Light Rain
7:55 AM 44.6 °F 39.7 °F 44.6 °F 100% 29.93 in 2.5 mi South 9.2 mph - 0.04 in Rain Light Rain
8:15 AM 44.6 °F 39.7 °F 44.6 °F 100% 29.94 in 5.0 mi South 9.2 mph - N/A   Overcast
8:35 AM 44.6 °F 38.8 °F 44.6 °F 100% 29.94 in 2.5 mi South 11.5 mph 17.3 mph N/A Rain Light Rain
8:55 AM 46.4 °F 41.5 °F 44.6 °F 93% 29.95 in 2.5 mi South 10.4 mph - 0.01 in   Overcast
9:35 AM 46.4 °F 41.1 °F 44.6 °F 93% 29.98 in 3.0 mi South 11.5 mph 18.4 mph N/A   Overcast
9:55 AM 46.4 °F 41.5 °F 44.6 °F 93% 29.99 in 2.0 mi South 10.4 mph - N/A   Overcast
10:15 AM 46.4 °F 41.5 °F 46.4 °F 100% 29.99 in 2.5 mi South 10.4 mph 18.4 mph N/A Rain Light Rain
10:55 AM 48.2 °F - 46.4 °F 93% 30.01 in 4.0 mi SSE 10.4 mph 19.6 mph N/A   Overcast
11:15 AM 48.2 °F - 46.4 °F 93% 30.01 in 5.0 mi SSE 11.5 mph 17.3 mph N/A   Overcast
11:55 AM 50.0 °F - 46.4 °F 87% 30.03 in 10.0 mi SSW 6.9 mph - N/A   Overcast
12:15 PM 50.0 °F - 46.4 °F 87% 30.03 in 9.0 mi SSW 10.4 mph 16.1 mph N/A   Overcast
12:35 PM 50.0 °F - 46.4 °F 87% 30.03 in 10.0 mi SSW 10.4 mph 16.1 mph N/A   Overcast
12:55 PM 50.0 °F - 46.4 °F 87% 30.04 in 10.0 mi SSW 9.2 mph 18.4 mph N/A   Overcast
1:15 PM 50.0 °F - 46.4 °F 87% 30.04 in 5.0 mi South 8.1 mph - N/A   Overcast
1:35 PM 50.0 °F - 48.2 °F 94% 30.06 in 3.0 mi Calm Calm - 0.01 in Rain Light Rain
1:55 PM 48.2 °F - 46.4 °F 93% 30.08 in 5.0 mi WSW 8.1 mph - 0.01 in   Overcast
2:15 PM 50.0 °F - 46.4 °F 87% 30.09 in 9.0 mi WSW 6.9 mph - N/A   Overcast
2:35 PM 48.2 °F - 46.4 °F 93% 30.09 in 7.0 mi SW 9.2 mph - N/A   Mostly Cloudy
2:55 PM 48.2 °F - 46.4 °F 93% 30.08 in 9.0 mi SW 6.9 mph 16.1 mph N/A   Overcast
3:15 PM 48.2 °F - 46.4 °F 93% 30.11 in 4.0 mi West 13.8 mph 20.7 mph N/A   Overcast
3:35 PM 48.2 °F - 46.4 °F 93% 30.12 in 4.0 mi SW 5.8 mph 19.6 mph N/A   Overcast
3:55 PM 48.2 °F - 44.6 °F 87% 30.12 in 5.0 mi SW 6.9 mph - N/A   Overcast
4:15 PM 48.2 °F - 44.6 °F 87% 30.12 in 10.0 mi SW 10.4 mph - N/A   Overcast
4:35 PM 48.2 °F - 44.6 °F 87% 30.13 in 10.0 mi WSW 6.9 mph - N/A   Overcast
4:55 PM 48.2 °F - 44.6 °F 87% 30.15 in 5.0 mi WSW 8.1 mph - N/A   Overcast
5:15 PM 46.4 °F 44.3 °F 44.6 °F 93% 30.15 in 5.0 mi West 4.6 mph - N/A Rain Light Rain
5:35 PM 46.4 °F 44.3 °F 44.6 °F 93% 30.16 in 3.0 mi SSW 4.6 mph - N/A   Overcast
5:55 PM 46.4 °F 43.5 °F 44.6 °F 93% 30.16 in 4.0 mi SSW 5.8 mph - N/A   Overcast
6:15 PM 46.4 °F 43.5 °F 44.6 °F 93% 30.18 in 4.0 mi South 5.8 mph - N/A   Overcast
6:35 PM 46.4 °F 43.5 °F 44.6 °F 93% 30.17 in 3.0 mi SSE 5.8 mph - N/A   Overcast
6:55 PM 46.4 °F 43.5 °F 44.6 °F 93% 30.17 in 10.0 mi South 5.8 mph - 0.01 in   Overcast
7:15 PM 46.4 °F 43.5 °F 44.6 °F 93% 30.18 in 6.0 mi SSW 5.8 mph - N/A   Overcast
7:35 PM 46.4 °F 44.3 °F 44.6 °F 93% 30.18 in 10.0 mi SSW 4.6 mph - N/A   Overcast
7:55 PM 46.4 °F 45.2 °F 44.6 °F 93% 30.18 in 5.0 mi SSW 3.5 mph - N/A   Overcast
8:15 PM 46.4 °F 45.2 °F 44.6 °F 93% 30.20 in 7.0 mi SW 3.5 mph - N/A   Overcast
8:35 PM 46.4 °F 44.3 °F 44.6 °F 93% 30.19 in 9.0 mi SW 4.6 mph - N/A   Overcast
8:55 PM 44.6 °F 43.1 °F 44.6 °F 100% 30.19 in 5.0 mi SW 3.5 mph - N/A   Overcast
9:15 PM 46.4 °F 44.3 °F 44.6 °F 93% 30.20 in 5.0 mi SSW 4.6 mph - N/A   Overcast
9:35 PM 46.4 °F - 44.6 °F 93% 30.20 in 7.0 mi Calm Calm - N/A   Overcast
9:55 PM 44.6 °F 42.2 °F 42.8 °F 93% 30.21 in 8.0 mi SSW 4.6 mph - N/A   Overcast
10:15 PM 44.6 °F 43.1 °F 42.8 °F 93% 30.20 in 10.0 mi South 3.5 mph - N/A   Overcast
10:35 PM 44.6 °F 41.4 °F 42.8 °F 93% 30.20 in 10.0 mi South 5.8 mph - N/A   Overcast
10:55 PM 44.6 °F 40.7 °F 42.8 °F 93% 30.20 in 10.0 mi South 6.9 mph - N/A   Overcast
11:15 PM 44.6 °F 42.2 °F 42.8 °F 93% 30.20 in 10.0 mi SSW 4.6 mph - N/A   Overcast
11:35 PM 44.6 °F - 41.0 °F 87% 30.21 in 10.0 mi Calm Calm - N/A   Overcast
11:55 PM 44.6 °F - 41.0 °F 87% 30.20 in 10.0 mi Calm Calm - N/A   Overcast